[[{"header":{"parameterUnit":"m.s-1","parameterCategory":1,"la1":30.2991,"la2":30.254,"lo1":-89.0895,"lo2":-89.0444,"dy":0.0017,"dx":0.0017,"nx":28,"ny":28,"refTime":"2024-04-12T03:00:00:Z","depth":0,"parameterNumber":2,"parameterNumberName":"U-component_of_WINDS"},"data":[0,0,0,0,0,0,0,0,0,0,0,0,0,0,0,0,0,0,0,0,0,0,0,0,0,0,0,0,0,0,0,0,0,0,0,0,0,0,0,0,0,0,0,0,0,0,0,0,0,0,0,0,0,0,0,0,0,0,-1.9519,-1.9518,0,-1.9454,-1.9454,-1.9453,-1.9356,-1.9354,-1.9353,-1.9351,-1.9288,-1.9288,-1.9288,0,0,0,0,0,0,0,0,0,0,0,0,0,-1.9563,-1.9563,-1.9519,-1.9518,-1.9518,-1.9455,-1.9454,-1.9453,-1.9356,-1.9354,-1.9352,-1.935,-1.9288,-1.9288,-1.9288,0,0,0,0,0,0,0,0,0,0,0,0,0,-1.9526,-1.9563,-1.9519,-1.9462,-1.9456,-1.9455,-1.9454,-1.9453,-1.9357,-1.9354,-1.9352,-1.9349,-1.9288,-1.9288,-1.9288,-1.9338,0,0,-1.9287,-1.9287,0,0,0,0,0,0,0,0,-1.9528,-1.9525,-1.9471,-1.9466,-1.9459,-1.9411,-1.9446,-1.9414,-1.9357,-1.9395,-1.9351,-1.9348,-1.9331,-1.9327,-1.9321,-1.9335,-1.9333,-1.9287,-1.9287,-1.9287,-1.9287,0,0,0,0,0,0,0,-1.9531,-1.9527,-1.9494,-1.947,-1.9463,-1.9441,-1.9432,-1.944,-1.9378,-1.9391,-1.9384,-1.9377,-1.9327,-1.9321,-1.9319,-1.9332,-1.9287,-1.9287,-1.9287,-1.9287,-1.9388,-1.9391,0,0,0,0,0,0,-1.9542,-1.953,-1.9496,-1.9492,-1.9488,-1.9442,-1.9433,-1.9429,-1.9378,-1.9367,-1.938,-1.9373,-1.9323,-1.9319,-1.9316,-1.9374,-1.9287,-1.9287,-1.9287,-1.9386,-1.9389,-1.9392,0,0,0,0,0,0,-1.9543,-1.954,-1.9498,-1.9509,-1.9502,-1.9444,-1.944,-1.9429,-1.9423,-1.9369,-1.9358,-1.9384,-1.932,-1.9316,-1.9334,-1.937,-1.9287,-1.9287,-1.9382,-1.9387,-1.939,-1.949,0,0,0,0,0,0,-1.9545,-1.9541,-1.9558,-1.951,-1.9502,-1.9516,-1.9442,-1.943,-1.9422,-1.9413,-1.9371,-1.9361,-1.9318,-1.9335,-1.9334,-1.9369,-1.9287,-1.9379,-1.9384,-1.9389,-1.9483,-1.9497,-1.9509,0,0,0,0,0,-1.9547,-1.9588,-1.9559,-1.9556,-1.9522,-1.9518,-1.9514,-1.9463,-1.9426,-1.9444,-1.941,-1.9362,-1.9367,-1.9337,-1.9336,-1.9371,-1.9376,-1.9383,-1.9389,-1.9477,-1.9494,-1.9508,0,0,0,0,0,0,-1.9643,-1.9581,-1.9548,-1.9575,-1.9553,-1.9502,-1.9523,-1.9482,-1.947,-1.9462,-1.94,-1.9391,-1.9418,-1.9396,-1.9365,-1.9419,-1.9364,-1.9371,-1.9432,-1.9448,-1.946,-1.9465,-1.9287,0,0,0,0,0,-1.9667,-1.9668,-1.9615,-1.9644,-1.9634,-1.9581,-1.9578,-1.954,-1.9515,-1.9505,-1.9472,-1.9451,-1.9447,-1.9446,-1.944,-1.9479,-1.947,-1.9503,-1.9516,-1.9527,-1.9533,-1.9555,-1.957,-1.9412,-1.9412,-1.9412,0,0,-1.9717,-1.9684,-1.9688,-1.9663,-1.9641,-1.9645,-1.9574,-1.9581,-1.9584,-1.9506,-1.9521,-1.9497,-1.9469,-1.9499,-1.951,-1.9482,-1.9575,-1.9535,-1.9544,-1.9544,-1.9563,-1.9578,-1.9592,-1.9417,-1.9416,-1.9415,0,0,-1.9811,-1.9785,-1.9808,-1.9788,-1.9756,-1.9721,-1.9727,-1.9683,-1.9663,-1.9678,-1.9621,-1.9624,-1.9619,-1.9602,-1.9593,-1.9684,-1.9641,-1.9684,-1.9751,-1.9773,-1.9786,-1.9796,-1.9831,-1.9844,-1.969,-1.969,-1.9691,0,-1.9878,-1.9881,-1.9825,-1.9836,-1.9828,-1.9758,-1.9782,-1.9766,-1.9734,-1.9731,-1.9699,-1.9692,-1.9668,-1.9694,-1.9717,-1.9711,-1.9718,-1.9688,-1.9788,-1.9798,-1.9808,-1.984,-1.9853,-1.9696,-1.9695,-1.9695,-1.9694,0,-1.9966,-1.9969,-1.9992,-1.9963,-1.9957,-1.9975,-1.9923,-1.9924,-1.9888,-1.9857,-1.9874,-1.9843,-1.9831,-1.9834,-1.9799,-1.9857,-1.984,-1.9799,-1.9743,-1.9829,-1.9859,-1.9871,-1.9704,-1.9702,-1.97,-1.9699,0,0,-2.0117,-2.0059,-2.0068,-2.0056,-2.0017,-2.0019,-2.0035,-2.0022,-2.0025,-2.0006,-2.002,-2.0018,-1.9981,-1.9971,-1.9933,-1.9953,-2.003,-1.991,-1.9908,-1.9935,-2.0095,-2.0127,-2.0142,-2.0001,-2.0003,-2.0005,-2.0098,0,-2.0205,-2.0227,-2.0179,-2.0214,-2.0218,-2.0153,-2.0167,-2.0146,-2.0118,-2.0119,-2.0088,-2.0089,-2.0038,-2.0032,-2.0048,-2.0017,-2.0062,-2.001,-2.0015,-2.0016,-2.0025,-2.0157,-2.019,-2.0278,-2.0109,-2.011,-2.0112,0,-2.0309,-2.0296,-2.0332,-2.0293,-2.0293,-2.0306,-2.0292,-2.0293,-2.0269,-2.0247,-2.0238,-2.0194,-2.0209,-2.0155,-2.0177,-2.0143,-2.0142,-2.0128,-2.013,-2.0129,-2.007,-2.0161,-2.0305,-2.0319,-2.0129,-2.0128,-2.0126,0,-2.0418,-2.041,-2.043,-2.0421,-2.0376,-2.0388,-2.037,-2.0343,-2.0339,-2.0328,-2.0325,-2.0316,-2.0312,-2.0306,-2.0263,-2.0227,-2.029,-2.0232,-2.0275,-2.0276,-2.0291,-2.0291,-2.0439,-2.029,-2.0289,-2.0289,-2.0289,0,-2.0521,-2.0546,-2.0479,-2.0492,-2.0519,-2.0464,-2.0493,-2.0468,-2.0446,-2.0454,-2.0398,-2.0408,-2.0349,-2.0353,-2.0319,-2.0343,-2.0341,-2.0326,-2.0317,-2.0331,-2.0334,-2.0331,-2.0324,-2.0293,-2.0292,-2.0291,-2.029,0,-2.0648,-2.0603,-2.0622,-2.0579,-2.0569,-2.0591,-2.0554,-2.0566,-2.0535,-2.0547,-2.0547,-2.0499,-2.0501,-2.0457,-2.045,-2.0427,-2.0468,-2.0447,-2.0476,-2.047,-2.0516,-2.0513,-2.0668,-2.0686,-2.0524,-2.0526,-2.0527,0,-2.0717,-2.0734,-2.0694,-2.0695,-2.068,-2.0683,-2.0679,-2.0627,-2.0626,-2.0602,-2.0617,-2.0614,-2.0609,-2.0616,-2.0582,-2.0578,-2.0557,-2.0612,-2.0556,-2.0572,-2.0561,-2.0561,-2.0563,-2.0624,-2.0626,-2.0628,-2.0629,0,-2.0845,-2.0823,-2.0819,-2.081,-2.0807,-2.0797,-2.0783,-2.0788,-2.0731,-2.0733,-2.0735,-2.0731,-2.0725,-2.0724,-2.0714,-2.0697,-2.0655,-2.0647,-2.0657,-2.0673,-2.069,-2.0683,-2.0509,-2.0644,-2.0642,-2.0641,-2.064,-2.064,-2.0946,-2.0959,-2.0933,-2.0932,-2.0917,-2.0906,-2.0915,-2.0886,-2.0886,-2.0877,-2.0846,-2.0854,-2.0832,-2.0813,-2.0801,-2.0808,-2.0781,-2.0795,-2.0799,-2.0803,-2.0813,-2.0688,-2.0805,-2.0805,-2.0804,-2.0804,-2.0804,0,-2.1072,-2.1053,-2.1053,-2.1035,-2.1036,-2.0995,-2.0979,-2.0982,-2.0989,-2.0972,-2.0969,-2.0972,-2.0972,-2.0939,-2.0935,-2.0947,-2.0928,-2.0948,-2.0947,-2.0944,-2.0836,-2.0828,-2.0963,-2.0963,-2.0963,-2.0963,-2.0963,-2.0963,-2.1138,-2.116,-2.1136,-2.1151,-2.1131,-2.1137,-2.1132,-2.1123,-2.1109,-2.1115,-2.1115,-2.1093,-2.107,-2.1065,-2.1064,-2.1054,-2.1056,-2.1083,-2.1068,-2.0967,-2.0952,-2.0937,-2.093,-2.1084,-2.1084,-2.1176,-2.1176,-2.1177]},{"header":{"parameterUnit":"m.s-1","parameterCategory":1,"la1":30.2991,"la2":30.254,"lo1":-89.0895,"lo2":-89.0444,"dy":0.0017,"dx":0.0017,"nx":28,"ny":28,"refTime":"2024-04-12T03:00:00:Z","depth":0,"parameterNumber":3,"parameterNumberName":"V-component_of_WINDS"},"data":[0,0,0,0,0,0,0,0,0,0,0,0,0,0,0,0,0,0,0,0,0,0,0,0,0,0,0,0,0,0,0,0,0,0,0,0,0,0,0,0,0,0,0,0,0,0,0,0,0,0,0,0,0,0,0,0,0,0,1.8876,1.8876,0,1.8849,1.8848,1.8848,1.8829,1.8829,1.8829,1.8828,1.8796,1.8795,1.8794,0,0,0,0,0,0,0,0,0,0,0,0,0,1.891,1.8909,1.8877,1.8876,1.8876,1.8849,1.8848,1.8848,1.8829,1.8829,1.8829,1.8828,1.8796,1.8795,1.8794,0,0,0,0,0,0,0,0,0,0,0,0,0,1.889,1.8909,1.8877,1.8863,1.8862,1.8849,1.8848,1.8848,1.8829,1.8829,1.8828,1.8828,1.8796,1.8795,1.8794,1.8791,0,0,1.8791,1.879,0,0,0,0,0,0,0,0,1.8891,1.8889,1.8865,1.8864,1.8862,1.8842,1.8848,1.8829,1.8829,1.8841,1.8828,1.8828,1.8811,1.8809,1.8804,1.8789,1.8788,1.879,1.879,1.8789,1.8789,0,0,0,0,0,0,0,1.8893,1.889,1.8865,1.8865,1.8863,1.8857,1.8854,1.8844,1.8827,1.884,1.8839,1.8836,1.881,1.8805,1.8803,1.8787,1.879,1.8789,1.8789,1.8788,1.8769,1.8769,0,0,0,0,0,0,1.8897,1.8891,1.8866,1.8865,1.8877,1.8857,1.8854,1.8849,1.8827,1.8824,1.8836,1.8835,1.8807,1.8804,1.8802,1.8796,1.8789,1.8788,1.8788,1.8769,1.8769,1.8769,0,0,0,0,0,0,1.8897,1.8895,1.8867,1.8877,1.8874,1.8857,1.8851,1.8848,1.8843,1.8824,1.8821,1.8834,1.8807,1.8803,1.8794,1.8795,1.8788,1.8787,1.8769,1.8769,1.8769,1.8786,0,0,0,0,0,0,1.8898,1.8895,1.8894,1.8878,1.8873,1.8861,1.8851,1.8848,1.8842,1.884,1.8822,1.8818,1.8806,1.8796,1.8793,1.8793,1.8786,1.8768,1.8769,1.8769,1.8785,1.8787,1.8788,0,0,0,0,0,1.89,1.8899,1.8894,1.8891,1.8872,1.8862,1.8859,1.8846,1.8842,1.8841,1.8829,1.8819,1.8796,1.8795,1.8792,1.8792,1.8768,1.8769,1.8769,1.8785,1.8787,1.8788,0,0,0,0,0,0,1.8915,1.8897,1.8891,1.8886,1.8876,1.8858,1.8856,1.8848,1.8838,1.8837,1.882,1.8816,1.8809,1.8799,1.8799,1.8788,1.8781,1.878,1.8794,1.8796,1.8797,1.8799,1.8785,0,0,0,0,0,1.8918,1.8912,1.8896,1.8893,1.8888,1.8873,1.8868,1.8859,1.8847,1.8842,1.883,1.8818,1.8808,1.8801,1.8791,1.8784,1.878,1.8783,1.8784,1.8785,1.8785,1.8781,1.8782,1.877,1.877,1.877,0,0,1.8923,1.8913,1.891,1.8895,1.8886,1.888,1.887,1.8862,1.8857,1.8841,1.8832,1.8822,1.8807,1.88,1.8796,1.8792,1.8787,1.8786,1.8787,1.8786,1.8781,1.8782,1.8783,1.8771,1.8771,1.8771,0,0,1.893,1.8922,1.8918,1.891,1.8897,1.8887,1.8887,1.8871,1.8864,1.8856,1.8843,1.8836,1.8819,1.8809,1.8802,1.8806,1.8796,1.8803,1.881,1.8806,1.8807,1.8807,1.8808,1.8809,1.8803,1.8803,1.8803,0,1.8938,1.8929,1.8917,1.8911,1.8905,1.8892,1.8887,1.8879,1.8863,1.8859,1.8855,1.8834,1.8823,1.8813,1.8814,1.8809,1.8806,1.8804,1.8808,1.8808,1.8809,1.8809,1.881,1.8803,1.8803,1.8803,1.8803,0,1.8939,1.8932,1.8931,1.8917,1.8911,1.8906,1.8892,1.8887,1.8879,1.887,1.8861,1.8847,1.8834,1.8831,1.8823,1.882,1.8818,1.8811,1.8804,1.8811,1.8811,1.8811,1.8805,1.8804,1.8804,1.8804,0,0,1.8953,1.8935,1.8934,1.8928,1.8913,1.8907,1.8901,1.889,1.8886,1.8875,1.8869,1.8856,1.885,1.8842,1.8832,1.8828,1.8832,1.8822,1.8821,1.8824,1.8827,1.8832,1.8832,1.8826,1.8826,1.8826,1.8828,0,1.8957,1.8947,1.8937,1.893,1.8924,1.8912,1.8906,1.8896,1.8887,1.888,1.8869,1.886,1.8853,1.8848,1.8844,1.8832,1.8832,1.8832,1.8819,1.8819,1.8822,1.8832,1.8837,1.884,1.8828,1.8828,1.8828,0,1.896,1.8952,1.8945,1.8931,1.8928,1.8924,1.8913,1.8906,1.8894,1.8888,1.8879,1.8869,1.8861,1.8856,1.8844,1.8845,1.8839,1.8832,1.8832,1.8829,1.8823,1.8829,1.884,1.8841,1.8828,1.8828,1.8828,0,1.8971,1.8958,1.8952,1.8947,1.8931,1.8928,1.8921,1.8909,1.8903,1.8893,1.8889,1.8878,1.8871,1.8862,1.8849,1.8847,1.8839,1.8832,1.8832,1.8833,1.883,1.8831,1.884,1.8828,1.8828,1.8828,1.8828,0,1.8976,1.8972,1.8957,1.8953,1.8948,1.8936,1.8931,1.8923,1.8912,1.8906,1.8895,1.8889,1.8872,1.8864,1.8854,1.8846,1.8843,1.8837,1.8834,1.8837,1.8838,1.8832,1.8831,1.8828,1.8828,1.8828,1.8828,0,1.8986,1.8976,1.8969,1.8955,1.8952,1.8948,1.8936,1.8931,1.8922,1.8914,1.8912,1.8897,1.8887,1.8874,1.8859,1.8852,1.8845,1.8841,1.8849,1.8847,1.8848,1.8848,1.8853,1.8853,1.8842,1.8842,1.8842,0,1.899,1.8987,1.8973,1.8969,1.8963,1.8956,1.895,1.8938,1.8932,1.8919,1.8916,1.8905,1.8896,1.888,1.8867,1.8856,1.8851,1.8854,1.8849,1.8853,1.885,1.885,1.885,1.8854,1.8855,1.8855,1.8855,0,1.8997,1.8992,1.8985,1.8976,1.897,1.8962,1.8954,1.8951,1.8937,1.8931,1.8921,1.8914,1.89,1.8889,1.8876,1.8868,1.8858,1.8857,1.8856,1.8859,1.8864,1.8861,1.8851,1.8856,1.8856,1.8856,1.8856,1.8856,1.9004,1.9,1.8991,1.8983,1.8976,1.8968,1.8963,1.8954,1.8947,1.8935,1.8928,1.8919,1.8907,1.8889,1.8881,1.8872,1.8869,1.8868,1.8867,1.8867,1.8868,1.8866,1.887,1.887,1.887,1.887,1.887,0,1.901,1.9003,1.8996,1.8986,1.8979,1.8974,1.8964,1.8959,1.8951,1.8941,1.8933,1.8922,1.8912,1.8899,1.8887,1.8883,1.8878,1.888,1.888,1.8878,1.8872,1.8874,1.8884,1.8884,1.8884,1.8884,1.8884,1.8884,1.9012,1.9006,1.9001,1.8991,1.8984,1.8976,1.8971,1.8963,1.8956,1.8944,1.8936,1.8928,1.8917,1.8905,1.8895,1.8891,1.8887,1.889,1.8885,1.888,1.8878,1.8877,1.8878,1.8889,1.8889,1.8891,1.8891,1.8891]}]]